Hourly Weather Bolshoe Lohovo

Today, 4 August, Wednesday

Time Temperature Precipitation Wind Pressure Humidity
00:00 +12°C° 0 mm 2 mps 739 mmHg 91%
01:00 +10°C° 0 mm 2 mps 740 mmHg 92%
02:00 +10°C° 0 mm 2 mps 740 mmHg 94%
03:00 +11°C° 0 mm 1 mps 740 mmHg 91%
04:00 +12°C° 0 mm 1 mps 740 mmHg 88%
05:00 +12°C° 0 mm 1 mps 741 mmHg 85%
06:00 +13°C° 0 mm 1 mps 741 mmHg 80%
07:00 +14°C° 0 mm 1 mps 741 mmHg 75%
08:00 +16°C° 0 mm 1 mps 742 mmHg 70%
09:00 +18°C° 0.1 mm 1 mps 742 mmHg 65%
10:00 +19°C° 0.1 mm 1 mps 742 mmHg 61%
11:00 +20°C° 0.1 mm 1 mps 742 mmHg 56%
12:00 +19°C° 0.2 mm 2 mps 742 mmHg 55%
13:00 +20°C° 0.2 mm 2 mps 742 mmHg 54%
14:00 +20°C° 0.2 mm 2 mps 742 mmHg 53%
15:00 +19°C° 0.1 mm 2 mps 742 mmHg 55%
16:00 +20°C° 0.1 mm 1 mps 742 mmHg 58%
17:00 +20°C° 0.1 mm 1 mps 742 mmHg 60%
18:00 +19°C° 0 mm 1 mps 742 mmHg 62%
19:00 +18°C° 0 mm 1 mps 742 mmHg 63%
20:00 +15°C° 0 mm 0 mps 743 mmHg 65%
21:00 +15°C° 0 mm 0 mps 743 mmHg 65%
22:00 +14°C° 0 mm 0 mps 743 mmHg 66%
23:00 +14°C° 0 mm 0 mps 743 mmHg 66%

Tomorrow, 5 August, Thursday

Time Temperature Precipitation Wind Pressure Humidity
00:00 +14°C° 0 mm 0 mps 743 mmHg 66%
01:00 +14°C° 0 mm 0 mps 743 mmHg 67%
02:00 +14°C° 0 mm 0 mps 743 mmHg 67%
03:00 +14°C° 0 mm 1 mps 743 mmHg 69%
04:00 +14°C° 0 mm 1 mps 743 mmHg 72%
05:00 +14°C° 0 mm 1 mps 743 mmHg 75%
06:00 +15°C° 0.1 mm 1 mps 743 mmHg 75%
07:00 +15°C° 0.1 mm 1 mps 743 mmHg 75%
08:00 +16°C° 0.1 mm 1 mps 743 mmHg 76%
09:00 +16°C° 0.3 mm 1 mps 743 mmHg 81%
10:00 +15°C° 0.3 mm 1 mps 743 mmHg 87%
11:00 +14°C° 0.3 mm 0 mps 743 mmHg 92%
12:00 +15°C° 1 mm 1 mps 743 mmHg 93%
13:00 +14°C° 1 mm 1 mps 743 mmHg 95%
14:00 +14°C° 1 mm 1 mps 742 mmHg 96%
15:00 +14°C° 0.3 mm 1 mps 742 mmHg 96%
16:00 +14°C° 0.3 mm 2 mps 742 mmHg 96%
17:00 +14°C° 0.3 mm 2 mps 742 mmHg 97%
18:00 +14°C° 0.5 mm 2 mps 742 mmHg 97%
19:00 +14°C° 0.5 mm 2 mps 742 mmHg 98%
20:00 +13°C° 0.5 mm 2 mps 742 mmHg 98%
21:00 +13°C° 0.3 mm 2 mps 741 mmHg 98%
22:00 +13°C° 0.3 mm 2 mps 741 mmHg 98%
23:00 +13°C° 0.3 mm 2 mps 741 mmHg 98%

Day after tomorrow, 6 August, Friday

Time Temperature Precipitation Wind Pressure Humidity
00:00 +13°C° 0 mm 2 mps 741 mmHg 98%
01:00 +13°C° 0 mm 2 mps 741 mmHg 98%
02:00 +13°C° 0 mm 2 mps 741 mmHg 98%
03:00 +13°C° 0 mm 2 mps 741 mmHg 98%
04:00 +12°C° 0 mm 3 mps 741 mmHg 98%
05:00 +12°C° 0 mm 3 mps 740 mmHg 98%
06:00 +13°C° 0 mm 3 mps 740 mmHg 97%
07:00 +13°C° 0 mm 3 mps 740 mmHg 96%
08:00 +13°C° 0 mm 3 mps 740 mmHg 95%
09:00 +13°C° 0 mm 4 mps 740 mmHg 92%
10:00 +14°C° 0 mm 4 mps 740 mmHg 88%
11:00 +14°C° 0 mm 4 mps 740 mmHg 85%
12:00 +15°C° 0 mm 4 mps 740 mmHg 80%
13:00 +17°C° 0 mm 4 mps 740 mmHg 76%
14:00 +18°C° 0 mm 4 mps 740 mmHg 71%
15:00 +17°C° 0 mm 4 mps 740 mmHg 71%
16:00 +17°C° 0 mm 4 mps 740 mmHg 71%
17:00 +17°C° 0 mm 4 mps 740 mmHg 71%
18:00 +17°C° 0 mm 4 mps 740 mmHg 73%
19:00 +15°C° 0 mm 4 mps 739 mmHg 76%
20:00 +14°C° 0 mm 4 mps 739 mmHg 78%
21:00 +14°C° 0 mm 4 mps 739 mmHg 82%
22:00 +13°C° 0 mm 4 mps 739 mmHg 86%
23:00 +12°C° 0 mm 4 mps 739 mmHg 89%

7 August, Saturday

Time Temperature Precipitation Wind Pressure Humidity
00:00 +12°C° 0.6 mm 4 mps 739 mmHg 92%
01:00 +12°C° 0.6 mm 4 mps 739 mmHg 95%
02:00 +12°C° 0.6 mm 4 mps 738 mmHg 97%
03:00 +13°C° 0.4 mm 4 mps 738 mmHg 98%
04:00 +13°C° 0.4 mm 4 mps 738 mmHg 98%
05:00 +14°C° 0.4 mm 4 mps 738 mmHg 98%
06:00 +14°C° 0.2 mm 4 mps 738 mmHg 98%
07:00 +15°C° 0.2 mm 4 mps 738 mmHg 98%
08:00 +15°C° 0.2 mm 4 mps 738 mmHg 98%
09:00 +15°C° 0.4 mm 4 mps 738 mmHg 98%
10:00 +17°C° 0.4 mm 4 mps 739 mmHg 98%
11:00 +17°C° 0.4 mm 4 mps 739 mmHg 98%
12:00 +17°C° 0.2 mm 4 mps 739 mmHg 97%
13:00 +17°C° 0.2 mm 4 mps 739 mmHg 97%
14:00 +18°C° 0.2 mm 4 mps 739 mmHg 97%
15:00 +17°C° 0.6 mm 4 mps 739 mmHg 97%
16:00 +17°C° 0.6 mm 4 mps 739 mmHg 98%
17:00 +17°C° 0.6 mm 4 mps 739 mmHg 98%
18:00 +17°C° 1 mm 4 mps 739 mmHg 98%
19:00 +17°C° 1 mm 4 mps 738 mmHg 98%
20:00 +17°C° 1 mm 4 mps 738 mmHg 98%
21:00 +18°C° 1.5 mm 4 mps 738 mmHg 98%
22:00 +18°C° 1.5 mm 3 mps 738 mmHg 98%
23:00 +18°C° 1.5 mm 3 mps 738 mmHg 98%

8 August, Sunday

Time Temperature Precipitation Wind Pressure Humidity
00:00 +18°C° 0.8 mm 3 mps 738 mmHg 98%
01:00 +18°C° 0.8 mm 3 mps 738 mmHg 98%
02:00 +18°C° 0.8 mm 3 mps 738 mmHg 99%
03:00 +18°C° 0.3 mm 2 mps 738 mmHg 99%
04:00 +18°C° 0.3 mm 2 mps 738 mmHg 99%
05:00 +18°C° 0.3 mm 2 mps 738 mmHg 99%
06:00 +18°C° 0.2 mm 2 mps 738 mmHg 98%
07:00 +19°C° 0.2 mm 1 mps 738 mmHg 98%
08:00 +19°C° 0.2 mm 1 mps 739 mmHg 98%
09:00 +19°C° 0.1 mm 1 mps 739 mmHg 96%
10:00 +20°C° 0.1 mm 1 mps 739 mmHg 94%
11:00 +18°C° 0.1 mm 0 mps 739 mmHg 91%
12:00 +18°C° 0.5 mm 0 mps 739 mmHg 90%
13:00 +18°C° 0.5 mm 0 mps 739 mmHg 89%
14:00 +18°C° 0.5 mm 0 mps 740 mmHg 88%
15:00 +20°C° 0.1 mm 1 mps 740 mmHg 86%
16:00 +21°C° 0.1 mm 1 mps 740 mmHg 85%
17:00 +21°C° 0.1 mm 1 mps 740 mmHg 83%
18:00 +20°C° 0 mm 1 mps 740 mmHg 86%
19:00 +19°C° 0 mm 1 mps 741 mmHg 90%
20:00 +18°C° 0 mm 1 mps 741 mmHg 93%
21:00 +16°C° 0 mm 1 mps 741 mmHg 94%
22:00 +15°C° 0 mm 1 mps 741 mmHg 94%
23:00 +15°C° 0 mm 1 mps 741 mmHg 95%

9 August, Monday

Time Temperature Precipitation Wind Pressure Humidity
00:00 +14°C° 0 mm 1 mps 741 mmHg 95%
01:00 +14°C° 0 mm 1 mps 742 mmHg 95%
02:00 +14°C° 0 mm 1 mps 742 mmHg 95%
03:00 +14°C° 0 mm 1 mps 742 mmHg 96%
04:00 +14°C° 0 mm 1 mps 742 mmHg 96%
05:00 +14°C° 0 mm 1 mps 742 mmHg 97%
06:00 +16°C° 0 mm 1 mps 742 mmHg 92%
07:00 +17°C° 0 mm 2 mps 742 mmHg 87%
08:00 +19°C° 0 mm 2 mps 743 mmHg 82%
09:00 +20°C° 0 mm 2 mps 743 mmHg 76%
10:00 +21°C° 0 mm 2 mps 743 mmHg 69%
11:00 +22°C° 0 mm 3 mps 743 mmHg 63%
12:00 +24°C° 0 mm 3 mps 743 mmHg 60%
13:00 +24°C° 0 mm 3 mps 743 mmHg 58%
14:00 +25°C° 0 mm 3 mps 743 mmHg 55%
15:00 +25°C° 0 mm 3 mps 743 mmHg 57%
16:00 +25°C° 0 mm 2 mps 743 mmHg 59%
17:00 +25°C° 0 mm 2 mps 743 mmHg 60%
18:00 +23°C° 0 mm 2 mps 743 mmHg 70%
19:00 +20°C° 0 mm 2 mps 744 mmHg 80%
20:00 +19°C° 0 mm 1 mps 744 mmHg 90%
21:00 +18°C° 0 mm 1 mps 744 mmHg 92%
22:00 +16°C° 0 mm 1 mps 744 mmHg 94%
23:00 +16°C° 0 mm 1 mps 744 mmHg 97%
Show more

We Need Your Consent

Meteoprog and our Service Providers may store and access personal data such as cookies, device identifiers or other similar technologies on your device and process such data to personalise content and ads, as well as provide social media features and to analyse the traffic.

  • Store and/or access information on your device

    Cookies, device identifiers or other information can be stored or accessed on your device for the purposes indicated above.

  • Personalised ads and content, ad and content measurement, audience insights, and products development

    Ads and content can be personalised based on a profile. More data can be added to better personalise ads and content. Ad and content performance can be measured. Insights about the audience who saw the ads and content can be derived. Such data can be used to develop or improve user’s experience, systems and software.

By clicking ‘I Agree’ you will allow the use of indicated cookies, device identifiers, web beacons or other similar technologies. Your settings can be changed in the browser on your device.

For certain purposes, legitimate interests may be relied on, rather than consent. You can read more about this in our Privacy and Cookie Policy.